When you browse on this site, cookies collect data to enhance your experience and personalize the content and advertising you see.
Visit our Privacy Policy to learn more. By continuing to use the site, you agree to this use of cookies and data.
EN

Hourly Weather Gola Gokarannath

Today, 28 September, Monday

Time Temperature Precipitation Wind Pressure Humidity
00:00 +25°C° 0 mm 0 mps 740 mmHg 71%
01:00 +25°C° 0 mm 0 mps 740 mmHg 73%
02:00 +27°C° 0 mm 1 mps 739 mmHg 74%
03:00 +26°C° 0 mm 1 mps 740 mmHg 76%
04:00 +26°C° 0 mm 1 mps 740 mmHg 78%
05:00 +25°C° 0 mm 1 mps 740 mmHg 79%
06:00 +25°C° 0 mm 0 mps 740 mmHg 75%
07:00 +26°C° 0 mm 0 mps 741 mmHg 71%
08:00 +27°C° 0 mm 0 mps 741 mmHg 67%
09:00 +29°C° 0 mm 0 mps 741 mmHg 61%
10:00 +33°C° 0 mm 1 mps 741 mmHg 54%
11:00 +34°C° 0 mm 1 mps 741 mmHg 48%
12:00 +35°C° 0 mm 1 mps 740 mmHg 46%
13:00 +36°C° 0 mm 2 mps 740 mmHg 44%
14:00 +36°C° 0 mm 2 mps 739 mmHg 41%
15:00 +35°C° 0 mm 2 mps 739 mmHg 46%
16:00 +34°C° 0 mm 2 mps 738 mmHg 51%
17:00 +31°C° 0 mm 2 mps 738 mmHg 56%
18:00 +31°C° 0 mm 2 mps 738 mmHg 57%
19:00 +30°C° 0 mm 1 mps 739 mmHg 58%
20:00 +29°C° 0 mm 1 mps 739 mmHg 59%
21:00 +28°C° 0 mm 1 mps 739 mmHg 61%
22:00 +26°C° 0 mm 0 mps 739 mmHg 62%
23:00 +26°C° 0 mm 0 mps 739 mmHg 63%

Tomorrow, 29 September, Tuesday

Time Temperature Precipitation Wind Pressure Humidity
00:00 +25°C° 0 mm 0 mps 739 mmHg 65%
01:00 +25°C° 0 mm 0 mps 739 mmHg 66%
02:00 +24°C° 0 mm 0 mps 739 mmHg 68%
03:00 +24°C° 0 mm 0 mps 739 mmHg 70%
04:00 +24°C° 0 mm 0 mps 739 mmHg 72%
05:00 +23°C° 0 mm 0 mps 739 mmHg 74%
06:00 +25°C° 0 mm 0 mps 739 mmHg 70%
07:00 +26°C° 0 mm 0 mps 740 mmHg 66%
08:00 +27°C° 0 mm 0 mps 740 mmHg 63%
09:00 +29°C° 0 mm 0 mps 740 mmHg 56%
10:00 +33°C° 0 mm 1 mps 740 mmHg 50%
11:00 +34°C° 0 mm 1 mps 740 mmHg 44%
12:00 +36°C° 0 mm 2 mps 739 mmHg 42%
13:00 +36°C° 0 mm 2 mps 739 mmHg 39%
14:00 +37°C° 0 mm 3 mps 738 mmHg 37%
15:00 +35°C° 0 mm 3 mps 738 mmHg 43%
16:00 +34°C° 0 mm 2 mps 737 mmHg 48%
17:00 +31°C° 0 mm 2 mps 737 mmHg 54%
18:00 +30°C° 0 mm 2 mps 737 mmHg 53%
19:00 +29°C° 0 mm 1 mps 738 mmHg 53%
20:00 +28°C° 0 mm 1 mps 738 mmHg 53%
21:00 +28°C° 0 mm 1 mps 738 mmHg 53%
22:00 +27°C° 0 mm 1 mps 738 mmHg 54%
23:00 +25°C° 0 mm 0 mps 738 mmHg 55%

Day after tomorrow, 30 September, Wednesday

Time Temperature Precipitation Wind Pressure Humidity
00:00 +24°C° 0 mm 0 mps 738 mmHg 57%
01:00 +24°C° 0 mm 0 mps 738 mmHg 59%
02:00 +24°C° 0 mm 0 mps 738 mmHg 61%
03:00 +23°C° 0 mm 0 mps 738 mmHg 64%
04:00 +23°C° 0 mm 0 mps 737 mmHg 66%
05:00 +23°C° 0 mm 0 mps 737 mmHg 68%
06:00 +24°C° 0 mm 0 mps 738 mmHg 66%
07:00 +26°C° 0 mm 0 mps 738 mmHg 63%
08:00 +27°C° 0 mm 0 mps 739 mmHg 60%
09:00 +31°C° 0 mm 1 mps 739 mmHg 54%
10:00 +32°C° 0 mm 1 mps 739 mmHg 48%
11:00 +34°C° 0 mm 1 mps 739 mmHg 42%
12:00 +36°C° 0 mm 2 mps 738 mmHg 39%
13:00 +36°C° 0 mm 2 mps 738 mmHg 37%
14:00 +37°C° 0 mm 3 mps 737 mmHg 35%
15:00 +35°C° 0 mm 3 mps 737 mmHg 40%
16:00 +32°C° 0 mm 2 mps 737 mmHg 46%
17:00 +31°C° 0 mm 2 mps 736 mmHg 51%
18:00 +30°C° 0 mm 2 mps 737 mmHg 51%
19:00 +29°C° 0 mm 1 mps 737 mmHg 52%
20:00 +28°C° 0 mm 1 mps 738 mmHg 52%
21:00 +28°C° 0 mm 1 mps 738 mmHg 54%
22:00 +27°C° 0 mm 1 mps 738 mmHg 56%
23:00 +27°C° 0 mm 1 mps 738 mmHg 58%

1 October, Thursday

Time Temperature Precipitation Wind Pressure Humidity
00:00 +26°C° 0 mm 1 mps 737 mmHg 61%
01:00 +26°C° 0 mm 1 mps 737 mmHg 63%
02:00 +25°C° 0 mm 1 mps 736 mmHg 65%
03:00 +25°C° 0 mm 1 mps 736 mmHg 66%
04:00 +25°C° 0 mm 1 mps 736 mmHg 68%
05:00 +24°C° 0 mm 1 mps 736 mmHg 69%
06:00 +26°C° 0 mm 1 mps 737 mmHg 65%
07:00 +25°C° 0 mm 0 mps 737 mmHg 62%
08:00 +27°C° 0 mm 0 mps 738 mmHg 58%
09:00 +28°C° 0 mm 0 mps 738 mmHg 53%
10:00 +32°C° 0 mm 1 mps 738 mmHg 47%
11:00 +34°C° 0 mm 1 mps 738 mmHg 41%
12:00 +34°C° 0 mm 1 mps 738 mmHg 40%
13:00 +36°C° 0 mm 2 mps 737 mmHg 39%
14:00 +36°C° 0 mm 2 mps 736 mmHg 38%
15:00 +35°C° 0 mm 2 mps 736 mmHg 44%
16:00 +32°C° 0 mm 2 mps 736 mmHg 50%
17:00 +31°C° 0 mm 2 mps 736 mmHg 56%
18:00 +30°C° 0 mm 1 mps 736 mmHg 57%
19:00 +29°C° 0 mm 1 mps 737 mmHg 57%
20:00 +26°C° 0 mm 0 mps 737 mmHg 58%
21:00 +26°C° 0 mm 0 mps 737 mmHg 59%
22:00 +25°C° 0 mm 0 mps 738 mmHg 60%
23:00 +25°C° 0 mm 0 mps 738 mmHg 61%

2 October, Friday

Time Temperature Precipitation Wind Pressure Humidity
00:00 +25°C° 0 mm 0 mps 737 mmHg 63%
01:00 +24°C° 0 mm 0 mps 737 mmHg 65%
02:00 +24°C° 0 mm 0 mps 737 mmHg 67%
03:00 +23°C° 0 mm 0 mps 737 mmHg 68%
04:00 +23°C° 0 mm 0 mps 737 mmHg 68%
05:00 +23°C° 0 mm 0 mps 737 mmHg 69%
06:00 +26°C° 0 mm 1 mps 738 mmHg 66%
07:00 +28°C° 0 mm 1 mps 738 mmHg 63%
08:00 +29°C° 0 mm 1 mps 738 mmHg 60%
09:00 +31°C° 0 mm 1 mps 738 mmHg 54%
10:00 +32°C° 0 mm 1 mps 738 mmHg 49%
11:00 +35°C° 0 mm 2 mps 738 mmHg 44%
12:00 +35°C° 0 mm 2 mps 738 mmHg 42%
13:00 +36°C° 0 mm 2 mps 738 mmHg 40%
14:00 +37°C° 0 mm 3 mps 737 mmHg 39%
15:00 +35°C° 0 mm 2 mps 737 mmHg 44%
16:00 +34°C° 0 mm 2 mps 737 mmHg 50%
17:00 +31°C° 0 mm 2 mps 737 mmHg 55%
18:00 +30°C° 0 mm 1 mps 737 mmHg 56%
19:00 +29°C° 0 mm 1 mps 738 mmHg 57%
20:00 +28°C° 0 mm 1 mps 738 mmHg 58%
21:00 +26°C° 0 mm 0 mps 738 mmHg 60%
22:00 +25°C° 0 mm 0 mps 738 mmHg 63%
23:00 +25°C° 0 mm 0 mps 739 mmHg 65%

3 October, Saturday

Time Temperature Precipitation Wind Pressure Humidity
00:00 +24°C° 0 mm 0 mps 738 mmHg 66%
01:00 +24°C° 0 mm 0 mps 738 mmHg 68%
02:00 +23°C° 0 mm 0 mps 738 mmHg 69%
03:00 +23°C° 0 mm 0 mps 738 mmHg 70%
04:00 +23°C° 0 mm 0 mps 738 mmHg 71%
05:00 +22°C° 0 mm 0 mps 739 mmHg 72%
06:00 +26°C° 0 mm 1 mps 739 mmHg 68%
07:00 +27°C° 0 mm 1 mps 740 mmHg 65%
08:00 +29°C° 0 mm 1 mps 740 mmHg 61%
09:00 +31°C° 0 mm 1 mps 740 mmHg 54%
10:00 +31°C° 0 mm 0 mps 740 mmHg 48%
11:00 +32°C° 0 mm 0 mps 740 mmHg 41%
12:00 +35°C° 0 mm 1 mps 740 mmHg 38%
13:00 +37°C° 0 mm 2 mps 739 mmHg 35%
14:00 +37°C° 0 mm 3 mps 739 mmHg 32%
15:00 +35°C° 0 mm 3 mps 739 mmHg 38%
16:00 +32°C° 0 mm 2 mps 739 mmHg 43%
17:00 +31°C° 0 mm 2 mps 738 mmHg 48%
18:00 +30°C° 0 mm 2 mps 739 mmHg 47%
19:00 +29°C° 0 mm 1 mps 739 mmHg 46%
20:00 +28°C° 0 mm 1 mps 740 mmHg 45%
21:00 +27°C° 0 mm 1 mps 740 mmHg 46%
22:00 +25°C° 0 mm 0 mps 740 mmHg 48%
23:00 +24°C° 0 mm 0 mps 740 mmHg 49%
Show more